Weather in Rassypnoye

Russia / Rostov Oblast     46°06′02″N   41°11′19″E
temp.,
°C
wind,
m/s
gust,
m/s
humid.,
%
clouds,
%
prec.,
mm/h
press.,
hPa
HPBL,
m
17 may, mon
mon1700:00+19ese61550100 0.0 1004409
03:00+16e61355100 0.0 1004282
06:00+14e47715 0.0 1004144
09:00+20nnw34602 0.0 1006407
12:00+25wnw465586 0.0 10061116
15:00+26nw45576 0.0 10061338
18:00+22wnw6107696 0.0 1006367
21:00+18w61291100 1.4 1008322
18 may, tue
tue1800:00+17wsw4997100 3.8 1009424
03:00+15w71293100 11.8 1009467
06:00+14w5119384 0.0 1010494
09:00+17w4679100 0.0 1011694
12:00+21w5765100 0.0 10111379
15:00+22w5758100 0.0 10111884
18:00+22w13659 0.0 10111485
21:00+16s22753 0.0 101116
19 may, wed
wed1900:00+15sse228782 0.0 101014
03:00+14sse228631 0.0 100919
06:00+15ssw3490100 0.4 1009123
09:00+14wsw2696100 8.4 1011442
12:00+16wsw5887100 6.6 1012758
15:00+18wsw8127535 8.4 10131348
18:00+16wsw812811 0.5 1014886
21:00+14sw815815 0.6 1015691
20 may, thu
thu2000:00+13wsw716785 0.0 1015718
03:00+13wsw615812 0.0 1015647
06:00+12sw412880 0.0 1015490
09:00+17sw577074 0.0 1015826
12:00+20sw45580 0.0 10151379
15:00+21ssw3354100 0.0 10141417
18:00+21se1265100 0.0 1014469
21:00+16ene466895 0.0 101484
21 may, fri
fri2100:00+14e49760 0.0 1012130
03:00+13e513805 0.0 1012235
06:00+14ese615731 0.0 1011302
09:00+20ese610680 0.0 1010420
12:00+26ese68595 0.0 1010697
15:00+28ese69600 0.0 1009862
18:00+26ese497298 0.0 1009302
21:00+20e45835 0.0 100959